Year,Month,Day,Hour,Minute,Value (Times are PST for temperature in C)
2020,04,13,00,00,3.00
2020,04,13,00,01,2.90
2020,04,13,00,02,2.90
2020,04,13,00,03,2.90
2020,04,13,00,04,2.90
2020,04,13,00,05,2.90
2020,04,13,00,06,2.90
2020,04,13,00,07,2.90
2020,04,13,00,08,2.80
2020,04,13,00,09,2.80
2020,04,13,00,10,2.80
2020,04,13,00,11,2.80
2020,04,13,00,12,2.80
2020,04,13,00,13,2.80
2020,04,13,00,14,2.70
2020,04,13,00,15,2.70
2020,04,13,00,16,2.70
2020,04,13,00,17,2.70
2020,04,13,00,18,2.70
2020,04,13,00,19,2.70
2020,04,13,00,20,2.70
2020,04,13,00,21,2.60
2020,04,13,00,22,2.60
2020,04,13,00,23,2.60
2020,04,13,00,24,2.50
2020,04,13,00,25,2.50
2020,04,13,00,26,2.40
2020,04,13,00,27,2.40
2020,04,13,00,28,2.40
2020,04,13,00,29,2.40
2020,04,13,00,30,2.30
2020,04,13,00,31,2.30
2020,04,13,00,32,2.30
2020,04,13,00,33,2.30
2020,04,13,00,34,2.20
2020,04,13,00,35,2.20
2020,04,13,00,36,2.20
2020,04,13,00,37,2.20
2020,04,13,00,38,2.20
2020,04,13,00,39,2.20
2020,04,13,00,40,2.10
2020,04,13,00,41,2.10
2020,04,13,00,42,2.10
2020,04,13,00,43,2.10
2020,04,13,00,44,2.10
2020,04,13,00,45,2.10
2020,04,13,00,46,2.10
2020,04,13,00,47,2.10
2020,04,13,00,48,2.10
2020,04,13,00,49,2.10
2020,04,13,00,50,2.10
2020,04,13,00,51,2.10
2020,04,13,00,52,2.10
2020,04,13,00,53,2.10
2020,04,13,00,54,2.10
2020,04,13,00,55,2.10
2020,04,13,00,56,2.10
2020,04,13,00,57,2.10
2020,04,13,00,58,2.10
2020,04,13,00,59,2.10
2020,04,13,01,00,2.10
2020,04,13,01,01,2.10
2020,04,13,01,02,2.10
2020,04,13,01,03,2.10
2020,04,13,01,04,2.10
2020,04,13,01,05,2.10
2020,04,13,01,06,2.10
2020,04,13,01,07,2.10
2020,04,13,01,08,2.10
2020,04,13,01,09,2.10
2020,04,13,01,10,2.10
2020,04,13,01,11,2.10
2020,04,13,01,12,2.10
2020,04,13,01,13,2.10
2020,04,13,01,14,2.10
2020,04,13,01,15,2.10
2020,04,13,01,16,2.10
2020,04,13,01,17,2.10
2020,04,13,01,18,2.10
2020,04,13,01,19,2.10
2020,04,13,01,20,2.10
2020,04,13,01,21,2.00
2020,04,13,01,22,2.00
2020,04,13,01,23,2.00
2020,04,13,01,24,2.00
2020,04,13,01,25,1.90
2020,04,13,01,26,1.90
2020,04,13,01,27,1.90
2020,04,13,01,28,1.90
2020,04,13,01,29,1.90
2020,04,13,01,30,1.90
2020,04,13,01,31,1.80
2020,04,13,01,32,1.80
2020,04,13,01,33,1.80
2020,04,13,01,34,1.80
2020,04,13,01,35,1.80
2020,04,13,01,36,1.80
2020,04,13,01,37,1.70
2020,04,13,01,38,1.70
2020,04,13,01,39,1.70
2020,04,13,01,40,1.70
2020,04,13,01,41,1.70
2020,04,13,01,42,1.70
2020,04,13,01,43,1.70
2020,04,13,01,44,1.70
2020,04,13,01,45,1.70
2020,04,13,01,46,1.70
2020,04,13,01,47,1.70
2020,04,13,01,48,1.60
2020,04,13,01,49,1.60
2020,04,13,01,50,1.60
2020,04,13,01,51,1.60
2020,04,13,01,52,1.60
2020,04,13,01,53,1.60
2020,04,13,01,54,1.60
2020,04,13,01,55,1.60
2020,04,13,01,56,1.60
2020,04,13,01,57,1.60
2020,04,13,01,58,1.60
2020,04,13,01,59,1.60
2020,04,13,02,00,1.60
2020,04,13,02,01,1.50
2020,04,13,02,02,1.50
2020,04,13,02,03,1.40
2020,04,13,02,04,1.40
2020,04,13,02,05,1.40
2020,04,13,02,06,1.40
2020,04,13,02,07,1.30
2020,04,13,02,08,1.30
2020,04,13,02,09,1.30
2020,04,13,02,10,1.30
2020,04,13,02,11,1.30
2020,04,13,02,12,1.30
2020,04,13,02,13,1.30
2020,04,13,02,14,1.30
2020,04,13,02,15,1.30
2020,04,13,02,16,1.30
2020,04,13,02,17,1.30
2020,04,13,02,18,1.30
2020,04,13,02,19,1.30
2020,04,13,02,20,1.30
2020,04,13,02,21,1.30
2020,04,13,02,22,1.30
2020,04,13,02,23,1.30
2020,04,13,02,24,1.30
2020,04,13,02,25,1.30
2020,04,13,02,26,1.30
2020,04,13,02,27,1.30
2020,04,13,02,28,1.30
2020,04,13,02,29,1.30
2020,04,13,02,30,1.30
2020,04,13,02,31,1.30
2020,04,13,02,32,1.30
2020,04,13,02,33,1.30
2020,04,13,02,34,1.30
2020,04,13,02,35,1.30
2020,04,13,02,36,1.30
2020,04,13,02,37,1.30
2020,04,13,02,38,1.30
2020,04,13,02,39,1.20
2020,04,13,02,40,1.20
2020,04,13,02,41,1.20
2020,04,13,02,42,1.20
2020,04,13,02,43,1.10
2020,04,13,02,44,1.10
2020,04,13,02,45,1.10
2020,04,13,02,46,1.10
2020,04,13,02,47,1.10
2020,04,13,02,48,1.00
2020,04,13,02,49,1.00
2020,04,13,02,50,1.00
2020,04,13,02,51,0.90
2020,04,13,02,52,0.90
2020,04,13,02,53,0.90
2020,04,13,02,54,0.90
2020,04,13,02,55,0.90
2020,04,13,02,56,0.90
2020,04,13,02,57,0.90
2020,04,13,02,58,0.90
2020,04,13,02,59,0.80
2020,04,13,03,00,0.80
2020,04,13,03,01,0.80
2020,04,13,03,02,0.80
2020,04,13,03,03,0.80
2020,04,13,03,04,0.80
2020,04,13,03,05,0.70
2020,04,13,03,06,0.70
2020,04,13,03,07,0.70
2020,04,13,03,08,0.70
2020,04,13,03,09,0.70
2020,04,13,03,10,0.60
2020,04,13,03,11,0.60
2020,04,13,03,12,0.60
2020,04,13,03,13,0.60
2020,04,13,03,14,0.60
2020,04,13,03,15,0.50
2020,04,13,03,16,0.50
2020,04,13,03,17,0.50
2020,04,13,03,18,0.50
2020,04,13,03,19,0.40
2020,04,13,03,20,0.40
2020,04,13,03,21,0.40
2020,04,13,03,22,0.40
2020,04,13,03,23,0.40
2020,04,13,03,24,0.40
2020,04,13,03,25,0.40
2020,04,13,03,26,0.40
2020,04,13,03,27,0.40
2020,04,13,03,28,0.40
2020,04,13,03,29,0.40
2020,04,13,03,30,0.40
2020,04,13,03,31,0.40
2020,04,13,03,32,0.40
2020,04,13,03,33,0.40
2020,04,13,03,34,0.40
2020,04,13,03,35,0.30
2020,04,13,03,36,0.30
2020,04,13,03,37,0.30
2020,04,13,03,38,0.30
2020,04,13,03,39,0.30
2020,04,13,03,40,0.30
2020,04,13,03,41,0.30
2020,04,13,03,42,0.30
2020,04,13,03,43,0.30
2020,04,13,03,44,0.30
2020,04,13,03,45,0.20
2020,04,13,03,46,0.20
2020,04,13,03,47,0.20
2020,04,13,03,48,0.20
2020,04,13,03,49,0.20
2020,04,13,03,50,0.20
2020,04,13,03,51,0.10
2020,04,13,03,52,0.10
2020,04,13,03,53,0.10
2020,04,13,03,54,0.10
2020,04,13,03,55,0.10
2020,04,13,03,56,0.00
2020,04,13,03,57,0.00
2020,04,13,03,58,0.00
2020,04,13,03,59,-0.10
2020,04,13,04,00,-0.10
2020,04,13,04,01,-0.10
2020,04,13,04,02,-0.10
2020,04,13,04,03,-0.20
2020,04,13,04,04,-0.20
2020,04,13,04,05,-0.20
2020,04,13,04,06,-0.20
2020,04,13,04,07,-0.30
2020,04,13,04,08,-0.30
2020,04,13,04,09,-0.30
2020,04,13,04,10,-0.30
2020,04,13,04,11,-0.40
2020,04,13,04,12,-0.40
2020,04,13,04,13,-0.40
2020,04,13,04,14,-0.40
2020,04,13,04,15,-0.50
2020,04,13,04,16,-0.50
2020,04,13,04,17,-0.50
2020,04,13,04,18,-0.50
2020,04,13,04,19,-0.50
2020,04,13,04,20,-0.50
2020,04,13,04,21,-0.50
2020,04,13,04,22,-0.60
2020,04,13,04,23,-0.60
2020,04,13,04,24,-0.60
2020,04,13,04,25,-0.60
2020,04,13,04,26,-0.60
2020,04,13,04,27,-0.60
2020,04,13,04,28,-0.60
2020,04,13,04,29,-0.60
2020,04,13,04,30,-0.60
2020,04,13,04,31,-0.60
2020,04,13,04,32,-0.60
2020,04,13,04,33,-0.60
2020,04,13,04,34,-0.60
2020,04,13,04,35,-0.70
2020,04,13,04,36,-0.70
2020,04,13,04,37,-0.70
2020,04,13,04,38,-0.70
2020,04,13,04,39,-0.70
2020,04,13,04,40,-0.80
2020,04,13,04,41,-0.80
2020,04,13,04,42,-0.80
2020,04,13,04,43,-0.80
2020,04,13,04,44,-0.80
2020,04,13,04,45,-0.80
2020,04,13,04,46,-0.90
2020,04,13,04,47,-0.90
2020,04,13,04,48,-0.90
2020,04,13,04,49,-0.90
2020,04,13,04,50,-0.90
2020,04,13,04,51,-0.90
2020,04,13,04,52,-0.90
2020,04,13,04,53,-1.00
2020,04,13,04,54,-1.00
2020,04,13,04,55,-1.00
2020,04,13,04,56,-1.00
2020,04,13,04,57,-1.00
2020,04,13,04,58,-1.00
2020,04,13,04,59,-1.00
2020,04,13,05,00,-1.10
2020,04,13,05,01,-1.10
2020,04,13,05,02,-1.10
2020,04,13,05,03,-1.10
2020,04,13,05,04,-1.10
2020,04,13,05,05,-1.10
2020,04,13,05,06,-1.10
2020,04,13,05,07,-1.10
2020,04,13,05,08,-1.10
2020,04,13,05,09,-1.10
2020,04,13,05,10,-1.10
2020,04,13,05,11,-1.10
2020,04,13,05,12,-1.10
2020,04,13,05,13,-1.10
2020,04,13,05,14,-1.10
2020,04,13,05,15,-1.10
2020,04,13,05,16,-1.10
2020,04,13,05,17,-1.10
2020,04,13,05,18,-1.10
2020,04,13,05,19,-1.10
2020,04,13,05,20,-1.10
2020,04,13,05,21,-1.10
2020,04,13,05,22,-1.10
2020,04,13,05,23,-1.10
2020,04,13,05,24,-1.10
2020,04,13,05,25,-1.10
2020,04,13,05,26,-1.10
2020,04,13,05,27,-1.20
2020,04,13,05,28,-1.20
2020,04,13,05,29,-1.20
2020,04,13,05,30,-1.20
2020,04,13,05,31,-1.20
2020,04,13,05,32,-1.20
2020,04,13,05,33,-1.20
2020,04,13,05,34,-1.20
2020,04,13,05,35,-1.30
2020,04,13,05,36,-1.30
2020,04,13,05,37,-1.30
2020,04,13,05,38,-1.30
2020,04,13,05,39,-1.30
2020,04,13,05,40,-1.40
2020,04,13,05,41,-1.40
2020,04,13,05,42,-1.40
2020,04,13,05,43,-1.40
2020,04,13,05,44,-1.40
2020,04,13,05,45,-1.40
2020,04,13,05,46,-1.40
2020,04,13,05,47,-1.50
2020,04,13,05,48,-1.50
2020,04,13,05,49,-1.40
2020,04,13,05,50,-1.40
2020,04,13,05,51,-1.50
2020,04,13,05,52,-1.40
2020,04,13,05,53,-1.40
2020,04,13,05,54,-1.40
2020,04,13,05,55,-1.40
2020,04,13,05,56,-1.40
2020,04,13,05,57,-1.40
2020,04,13,05,58,-1.50
2020,04,13,05,59,-1.50
2020,04,13,06,00,-1.50
2020,04,13,06,01,-1.50
2020,04,13,06,02,-1.60
2020,04,13,06,03,-1.60
2020,04,13,06,04,-1.60
2020,04,13,06,05,-1.60
2020,04,13,06,06,-1.70
2020,04,13,06,07,-1.70
2020,04,13,06,08,-1.70
2020,04,13,06,09,-1.70
2020,04,13,06,10,-1.70
2020,04,13,06,11,-1.70
2020,04,13,06,12,-1.70
2020,04,13,06,13,-1.70
2020,04,13,06,14,-1.70
2020,04,13,06,15,-1.70
2020,04,13,06,16,-1.70
2020,04,13,06,17,-1.70
2020,04,13,06,18,-1.70
2020,04,13,06,19,-1.70
2020,04,13,06,20,-1.70
2020,04,13,06,21,-1.70
2020,04,13,06,22,-1.70
2020,04,13,06,23,-1.70
2020,04,13,06,24,-1.70
2020,04,13,06,25,-1.70
2020,04,13,06,26,-1.70
2020,04,13,06,27,-1.70
2020,04,13,06,28,-1.70
2020,04,13,06,29,-1.70
2020,04,13,06,30,-1.70
2020,04,13,06,31,-1.70
2020,04,13,06,32,-1.70
2020,04,13,06,33,-1.70
2020,04,13,06,34,-1.70
2020,04,13,06,35,-1.70
2020,04,13,06,36,-1.70
2020,04,13,06,37,-1.70
2020,04,13,06,38,-1.70
2020,04,13,06,39,-1.70
2020,04,13,06,40,-1.70
2020,04,13,06,41,-1.70
2020,04,13,06,42,-1.70
2020,04,13,06,43,-1.70
2020,04,13,06,44,-1.70
2020,04,13,06,45,-1.70
2020,04,13,06,46,-1.70
2020,04,13,06,47,-1.70
2020,04,13,06,48,-1.70
2020,04,13,06,49,-1.70
2020,04,13,06,50,-1.70
2020,04,13,06,51,-1.70
2020,04,13,06,52,-1.70
2020,04,13,06,53,-1.70
2020,04,13,06,54,-1.70
2020,04,13,06,55,-1.70
2020,04,13,06,56,-1.70
2020,04,13,06,57,-1.70
2020,04,13,06,58,-1.80
2020,04,13,06,59,-1.80
2020,04,13,07,00,-1.80
2020,04,13,07,01,-1.80
2020,04,13,07,02,-1.80
2020,04,13,07,03,-1.80
2020,04,13,07,04,-1.80
2020,04,13,07,05,-1.80
2020,04,13,07,06,-1.80
2020,04,13,07,07,-1.80
2020,04,13,07,08,-1.80
2020,04,13,07,09,-1.80
2020,04,13,07,10,-1.80
2020,04,13,07,11,-1.80
2020,04,13,07,12,-1.80
2020,04,13,07,13,-1.80
2020,04,13,07,14,-1.80
2020,04,13,07,15,-1.80
2020,04,13,07,16,-1.80
2020,04,13,07,17,-1.80
2020,04,13,07,18,-1.80
2020,04,13,07,19,-1.80
2020,04,13,07,20,-1.70
2020,04,13,07,21,-1.70
2020,04,13,07,22,-1.70
2020,04,13,07,23,-1.70
2020,04,13,07,24,-1.70
2020,04,13,07,25,-1.70
2020,04,13,07,26,-1.70
2020,04,13,07,27,-1.70
2020,04,13,07,28,-1.70
2020,04,13,07,29,-1.70
2020,04,13,07,30,-1.70
2020,04,13,07,31,-1.70
2020,04,13,07,32,-1.60
2020,04,13,07,33,-1.60
2020,04,13,07,34,-1.60
2020,04,13,07,35,-1.60
2020,04,13,07,36,-1.60
2020,04,13,07,37,-1.60
2020,04,13,07,38,-1.50
2020,04,13,07,39,-1.50
2020,04,13,07,40,-1.50
2020,04,13,07,41,-1.40
2020,04,13,07,42,-1.40
2020,04,13,07,43,-1.40
2020,04,13,07,44,-1.40
2020,04,13,07,45,-1.30
2020,04,13,07,46,-1.30
2020,04,13,07,47,-1.30
2020,04,13,07,48,-1.20
2020,04,13,07,49,-1.20
2020,04,13,07,50,-1.20
2020,04,13,07,51,-1.10
2020,04,13,07,52,-1.10
2020,04,13,07,53,-1.00
2020,04,13,07,54,-1.00
2020,04,13,07,55,-0.90
2020,04,13,07,56,-0.90
2020,04,13,07,57,-0.80
2020,04,13,07,58,-0.80
2020,04,13,07,59,-0.80
2020,04,13,08,00,-0.70
2020,04,13,08,01,-0.60
2020,04,13,08,02,-0.50
2020,04,13,08,03,-0.40
2020,04,13,08,04,-0.30
2020,04,13,08,05,-0.20
2020,04,13,08,06,-0.10
2020,04,13,08,07,0.00
2020,04,13,08,08,0.10
2020,04,13,08,09,0.20
2020,04,13,08,10,0.30
2020,04,13,08,11,0.40
2020,04,13,08,12,0.50
2020,04,13,08,13,0.50
2020,04,13,08,14,0.60
2020,04,13,08,15,0.60
2020,04,13,08,16,0.60
2020,04,13,08,17,0.70
2020,04,13,08,18,0.80
2020,04,13,08,19,0.80
2020,04,13,08,20,0.90
2020,04,13,08,21,1.00
2020,04,13,08,22,1.00
2020,04,13,08,23,1.10
2020,04,13,08,24,1.20
2020,04,13,08,25,1.20
2020,04,13,08,26,1.30
2020,04,13,08,27,1.30
2020,04,13,08,28,1.40
2020,04,13,08,29,1.50
2020,04,13,08,30,1.70
2020,04,13,08,31,1.80
2020,04,13,08,32,1.90
2020,04,13,08,33,2.00
2020,04,13,08,34,2.20
2020,04,13,08,35,2.30
2020,04,13,08,36,2.40
2020,04,13,08,37,2.50
2020,04,13,08,38,2.60
2020,04,13,08,39,2.70
2020,04,13,08,40,2.80
2020,04,13,08,41,2.80
2020,04,13,08,42,2.90
2020,04,13,08,43,3.00
2020,04,13,08,44,3.10
2020,04,13,08,45,3.20
2020,04,13,08,46,3.30
2020,04,13,08,47,3.40
2020,04,13,08,48,3.50
2020,04,13,08,49,3.60
2020,04,13,08,50,3.70
2020,04,13,08,51,3.80
2020,04,13,08,52,3.90
2020,04,13,08,53,3.90
2020,04,13,08,54,4.00
2020,04,13,08,55,4.10
2020,04,13,08,56,4.20
2020,04,13,08,57,4.30
2020,04,13,08,58,4.40
2020,04,13,08,59,4.50
2020,04,13,09,00,4.60
2020,04,13,09,01,4.70
2020,04,13,09,02,4.80
2020,04,13,09,03,4.90
2020,04,13,09,04,5.00
2020,04,13,09,05,5.10
2020,04,13,09,06,5.10
2020,04,13,09,07,5.20
2020,04,13,09,08,5.30
2020,04,13,09,09,5.40
2020,04,13,09,10,5.50
2020,04,13,09,11,5.60
2020,04,13,09,12,5.70
2020,04,13,09,13,5.80
2020,04,13,09,14,5.90
2020,04,13,09,15,6.00
2020,04,13,09,16,6.10
2020,04,13,09,17,6.10
2020,04,13,09,18,6.20
2020,04,13,09,19,6.30
2020,04,13,09,20,6.30
2020,04,13,09,21,6.40
2020,04,13,09,22,6.50
2020,04,13,09,23,6.60
2020,04,13,09,24,6.70
2020,04,13,09,25,6.80
2020,04,13,09,26,6.90
2020,04,13,09,27,7.00
2020,04,13,09,28,7.10
2020,04,13,09,29,7.20
2020,04,13,09,30,7.30
2020,04,13,09,31,7.40
2020,04,13,09,32,7.50
2020,04,13,09,33,7.60
2020,04,13,09,34,7.80
2020,04,13,09,35,7.90
2020,04,13,09,36,8.00
2020,04,13,09,37,8.10
2020,04,13,09,38,8.10
2020,04,13,09,39,8.20
2020,04,13,09,40,8.30
2020,04,13,09,41,8.40
2020,04,13,09,42,8.40
2020,04,13,09,43,8.50
2020,04,13,09,44,8.60
2020,04,13,09,45,8.60
2020,04,13,09,46,8.70
2020,04,13,09,47,8.70
2020,04,13,09,48,8.70
2020,04,13,09,49,8.80
2020,04,13,09,50,8.90
2020,04,13,09,51,9.00
2020,04,13,09,52,9.10
2020,04,13,09,53,9.20
2020,04,13,09,54,9.30
2020,04,13,09,55,9.40
2020,04,13,09,56,9.50
2020,04,13,09,57,9.60
2020,04,13,09,58,9.60
2020,04,13,09,59,9.70
2020,04,13,10,00,9.80
2020,04,13,10,01,9.80
2020,04,13,10,02,9.80
2020,04,13,10,03,9.80
2020,04,13,10,04,9.90
2020,04,13,10,05,9.90
2020,04,13,10,06,10.00
2020,04,13,10,07,10.00
2020,04,13,10,08,10.10
2020,04,13,10,09,10.20
2020,04,13,10,10,10.30
2020,04,13,10,11,10.40
2020,04,13,10,12,10.50
2020,04,13,10,13,10.60
2020,04,13,10,14,10.70
2020,04,13,10,15,10.80
2020,04,13,10,16,10.80
2020,04,13,10,17,10.90
2020,04,13,10,18,10.90
2020,04,13,10,19,11.00
2020,04,13,10,20,11.10
2020,04,13,10,21,11.20
2020,04,13,10,22,11.20
2020,04,13,10,23,11.30
2020,04,13,10,24,11.20
2020,04,13,10,25,11.10
2020,04,13,10,26,11.10
2020,04,13,10,27,11.10
2020,04,13,10,28,11.20
2020,04,13,10,29,11.20
2020,04,13,10,30,11.30
2020,04,13,10,31,11.30
2020,04,13,10,32,11.40
2020,04,13,10,33,11.30
2020,04,13,10,34,11.30
2020,04,13,10,35,11.40
2020,04,13,10,36,11.40
2020,04,13,10,37,11.50
2020,04,13,10,38,11.50
2020,04,13,10,39,11.60
2020,04,13,10,40,11.60
2020,04,13,10,41,11.70
2020,04,13,10,42,11.80
2020,04,13,10,43,11.80
2020,04,13,10,44,11.80
2020,04,13,10,45,11.90
2020,04,13,10,46,11.90
2020,04,13,10,47,11.90
2020,04,13,10,48,12.00
2020,04,13,10,49,12.10
2020,04,13,10,50,12.20
2020,04,13,10,51,12.20
2020,04,13,10,52,12.20
2020,04,13,10,53,12.30
2020,04,13,10,54,12.40
2020,04,13,10,55,12.40
2020,04,13,10,56,12.50
2020,04,13,10,57,12.60
2020,04,13,10,58,12.60
2020,04,13,10,59,12.60
2020,04,13,11,00,12.60
2020,04,13,11,01,12.60
2020,04,13,11,02,12.60
2020,04,13,11,03,12.60
2020,04,13,11,04,12.70
2020,04,13,11,05,12.70
2020,04,13,11,06,12.80
2020,04,13,11,07,12.80
2020,04,13,11,08,12.80
2020,04,13,11,09,12.90
2020,04,13,11,10,12.90
2020,04,13,11,11,12.90
2020,04,13,11,12,12.90
2020,04,13,11,13,13.00
2020,04,13,11,14,13.20
2020,04,13,11,15,13.20
2020,04,13,11,16,13.30
2020,04,13,11,17,13.30
2020,04,13,11,18,13.30
2020,04,13,11,19,13.40
2020,04,13,11,20,13.50
2020,04,13,11,21,13.60
2020,04,13,11,22,13.60
2020,04,13,11,23,13.60
2020,04,13,11,24,13.70
2020,04,13,11,25,13.80
2020,04,13,11,26,13.90
2020,04,13,11,27,13.90
2020,04,13,11,28,13.80
2020,04,13,11,29,13.80
2020,04,13,11,30,13.90
2020,04,13,11,31,13.90
2020,04,13,11,32,14.00
2020,04,13,11,33,14.00
2020,04,13,11,34,14.10
2020,04,13,11,35,14.10
2020,04,13,11,36,14.10
2020,04,13,11,37,14.00
2020,04,13,11,38,14.00
2020,04,13,11,39,13.90
2020,04,13,11,40,13.80
2020,04,13,11,41,13.90
2020,04,13,11,42,13.90
2020,04,13,11,43,14.00
2020,04,13,11,44,14.10
2020,04,13,11,45,14.10
2020,04,13,11,46,14.10
2020,04,13,11,47,14.30
2020,04,13,11,48,14.50
2020,04,13,11,49,14.60
2020,04,13,11,50,14.70
2020,04,13,11,51,14.80
2020,04,13,11,52,15.00
2020,04,13,11,53,15.00
2020,04,13,11,54,15.10
2020,04,13,11,55,15.10
2020,04,13,11,56,15.00
2020,04,13,11,57,15.00
2020,04,13,11,58,15.00
2020,04,13,11,59,15.00
2020,04,13,12,00,14.70
2020,04,13,12,01,14.60
2020,04,13,12,02,14.50
2020,04,13,12,03,14.40
2020,04,13,12,04,14.40
2020,04,13,12,05,14.30
2020,04,13,12,06,14.40
2020,04,13,12,07,14.50
2020,04,13,12,08,14.50
2020,04,13,12,09,14.60
2020,04,13,12,10,14.60
2020,04,13,12,11,14.70
2020,04,13,12,12,14.70
2020,04,13,12,13,14.70
2020,04,13,12,14,14.80
2020,04,13,12,15,14.90
2020,04,13,12,16,14.90
2020,04,13,12,17,14.90
2020,04,13,12,18,14.90
2020,04,13,12,19,15.00
2020,04,13,12,20,15.00
2020,04,13,12,21,15.00
2020,04,13,12,22,15.00
2020,04,13,12,23,15.00
2020,04,13,12,24,15.00
2020,04,13,12,25,15.20
2020,04,13,12,26,15.30
2020,04,13,12,27,15.40
2020,04,13,12,28,15.60
2020,04,13,12,29,15.80
2020,04,13,12,30,15.90
2020,04,13,12,31,16.10
2020,04,13,12,32,16.10
2020,04,13,12,33,16.20
2020,04,13,12,34,16.30
2020,04,13,12,35,16.40
2020,04,13,12,36,16.30
2020,04,13,12,37,16.30
2020,04,13,12,38,16.20
2020,04,13,12,39,16.00
2020,04,13,12,40,15.90
2020,04,13,12,41,15.70
2020,04,13,12,42,15.60
2020,04,13,12,43,15.60
2020,04,13,12,44,15.60
2020,04,13,12,45,15.50
2020,04,13,12,46,15.50
2020,04,13,12,47,15.50
2020,04,13,12,48,15.50
2020,04,13,12,49,15.60
2020,04,13,12,50,15.60
2020,04,13,12,51,15.60
2020,04,13,12,52,15.60
2020,04,13,12,53,15.70
2020,04,13,12,54,15.80
2020,04,13,12,55,15.80
2020,04,13,12,56,15.90
2020,04,13,12,57,15.90
2020,04,13,12,58,15.90
2020,04,13,12,59,16.00
2020,04,13,13,00,16.10
2020,04,13,13,01,16.20
2020,04,13,13,02,16.30
2020,04,13,13,03,16.40
2020,04,13,13,04,16.50
2020,04,13,13,05,16.60
2020,04,13,13,06,16.70
2020,04,13,13,07,16.80
2020,04,13,13,08,16.80
2020,04,13,13,09,16.80
2020,04,13,13,10,16.80
2020,04,13,13,11,16.80
2020,04,13,13,12,16.70
2020,04,13,13,13,16.60
2020,04,13,13,14,16.50
2020,04,13,13,15,16.50
2020,04,13,13,16,16.60
2020,04,13,13,17,16.70
2020,04,13,13,18,16.80
2020,04,13,13,19,16.90
2020,04,13,13,20,17.00
2020,04,13,13,21,17.20
2020,04,13,13,22,17.30
2020,04,13,13,23,17.30
2020,04,13,13,24,17.40
2020,04,13,13,25,17.50
2020,04,13,13,26,17.60
2020,04,13,13,27,17.60
2020,04,13,13,28,17.70
2020,04,13,13,29,17.80
2020,04,13,13,30,17.90
2020,04,13,13,31,17.90
2020,04,13,13,32,17.90
2020,04,13,13,33,17.90
2020,04,13,13,34,17.90
2020,04,13,13,35,18.00
2020,04,13,13,36,18.10
2020,04,13,13,37,18.20
2020,04,13,13,38,18.20
2020,04,13,13,39,18.10
2020,04,13,13,40,18.10
2020,04,13,13,41,18.00
2020,04,13,13,42,17.90
2020,04,13,13,43,17.80
2020,04,13,13,44,17.90
2020,04,13,13,45,18.00
2020,04,13,13,46,18.00
2020,04,13,13,47,18.10
2020,04,13,13,48,18.10
2020,04,13,13,49,18.20
2020,04,13,13,50,18.20
2020,04,13,13,51,18.20
2020,04,13,13,52,18.30
2020,04,13,13,53,18.40
2020,04,13,13,54,18.40
2020,04,13,13,55,18.40
2020,04,13,13,56,18.40
2020,04,13,13,57,18.50
2020,04,13,13,58,18.60
2020,04,13,13,59,18.50
2020,04,13,14,00,18.40
2020,04,13,14,01,18.40
2020,04,13,14,02,18.50
2020,04,13,14,03,18.60
2020,04,13,14,04,18.70
2020,04,13,14,05,18.80
2020,04,13,14,06,18.80
2020,04,13,14,07,18.90
2020,04,13,14,08,18.90
2020,04,13,14,09,19.00
2020,04,13,14,10,18.90
2020,04,13,14,11,18.90
2020,04,13,14,12,18.90
2020,04,13,14,13,18.90
2020,04,13,14,14,19.00
2020,04,13,14,15,19.10
2020,04,13,14,16,19.20
2020,04,13,14,17,19.20
2020,04,13,14,18,19.30
2020,04,13,14,19,19.40
2020,04,13,14,20,19.40
2020,04,13,14,21,19.40
2020,04,13,14,22,19.40
2020,04,13,14,23,19.30
2020,04,13,14,24,19.20
2020,04,13,14,25,19.20
2020,04,13,14,26,19.20
2020,04,13,14,27,19.20
2020,04,13,14,28,19.20
2020,04,13,14,29,19.20
2020,04,13,14,30,19.20
2020,04,13,14,31,19.30
2020,04,13,14,32,19.30
2020,04,13,14,33,19.30
2020,04,13,14,34,19.20
2020,04,13,14,35,19.10
2020,04,13,14,36,19.10
2020,04,13,14,37,19.00
2020,04,13,14,38,18.90
2020,04,13,14,39,18.90
2020,04,13,14,40,18.90
2020,04,13,14,41,18.90
2020,04,13,14,42,18.90
2020,04,13,14,43,18.90
2020,04,13,14,44,19.00
2020,04,13,14,45,19.00
2020,04,13,14,46,19.00
2020,04,13,14,47,19.00
2020,04,13,14,48,19.00
2020,04,13,14,49,19.00
2020,04,13,14,50,19.10
2020,04,13,14,51,19.10
2020,04,13,14,52,19.10
2020,04,13,14,53,19.00
2020,04,13,14,54,18.90
2020,04,13,14,55,18.80
2020,04,13,14,56,18.80
2020,04,13,14,57,18.80
2020,04,13,14,58,18.90
2020,04,13,14,59,18.90
2020,04,13,15,00,19.00
2020,04,13,15,01,19.00
2020,04,13,15,02,19.00
2020,04,13,15,03,18.90
2020,04,13,15,04,18.90
2020,04,13,15,05,18.90
2020,04,13,15,06,19.00
2020,04,13,15,07,19.00
2020,04,13,15,08,19.10
2020,04,13,15,09,19.20
2020,04,13,15,10,19.30
2020,04,13,15,11,19.30
2020,04,13,15,12,19.20
2020,04,13,15,13,19.10
2020,04,13,15,14,19.10
2020,04,13,15,15,19.20
2020,04,13,15,16,19.20
2020,04,13,15,17,19.20
2020,04,13,15,18,19.20
2020,04,13,15,19,19.30
2020,04,13,15,20,19.30
2020,04,13,15,21,19.40
2020,04,13,15,22,19.40
2020,04,13,15,23,19.40
2020,04,13,15,24,19.50
2020,04,13,15,25,19.50
2020,04,13,15,26,19.60
2020,04,13,15,27,19.60
2020,04,13,15,28,19.50
2020,04,13,15,29,19.40
2020,04,13,15,30,19.30
2020,04,13,15,31,19.30
2020,04,13,15,32,19.20
2020,04,13,15,33,19.30
2020,04,13,15,34,19.40
2020,04,13,15,35,19.40
2020,04,13,15,36,19.40
2020,04,13,15,37,19.40
2020,04,13,15,38,19.50
2020,04,13,15,39,19.50
2020,04,13,15,40,19.50
2020,04,13,15,41,19.40
2020,04,13,15,42,19.50
2020,04,13,15,43,19.50
2020,04,13,15,44,19.50
2020,04,13,15,45,19.40
2020,04,13,15,46,19.50
2020,04,13,15,47,19.50
2020,04,13,15,48,19.50
2020,04,13,15,49,19.50
2020,04,13,15,50,19.50
2020,04,13,15,51,19.50
2020,04,13,15,52,19.40
2020,04,13,15,53,19.40
2020,04,13,15,54,19.50
2020,04,13,15,55,19.60
2020,04,13,15,56,19.60
2020,04,13,15,57,19.60
2020,04,13,15,58,19.60
2020,04,13,15,59,19.60
2020,04,13,16,00,19.60
2020,04,13,16,01,19.60
2020,04,13,16,02,19.50
2020,04,13,16,03,19.40
2020,04,13,16,04,19.40
2020,04,13,16,05,19.40
2020,04,13,16,06,19.10
2020,04,13,16,07,19.10
2020,04,13,16,08,19.10
2020,04,13,16,09,19.10
2020,04,13,16,10,19.10
2020,04,13,16,11,19.10
2020,04,13,16,12,19.00
2020,04,13,16,13,18.90
2020,04,13,16,14,18.80
2020,04,13,16,15,18.80
2020,04,13,16,16,18.80
2020,04,13,16,17,18.90
2020,04,13,16,18,18.80
2020,04,13,16,19,18.80
2020,04,13,16,20,18.80
2020,04,13,16,21,18.80
2020,04,13,16,22,18.80
2020,04,13,16,23,18.70
2020,04,13,16,24,18.70
2020,04,13,16,25,18.70
2020,04,13,16,26,18.60
2020,04,13,16,27,18.50
2020,04,13,16,28,18.40
2020,04,13,16,29,18.40
2020,04,13,16,30,18.30
2020,04,13,16,31,18.20
2020,04,13,16,32,18.20
2020,04,13,16,33,18.20
2020,04,13,16,34,18.20
2020,04,13,16,35,18.20
2020,04,13,16,36,18.10
2020,04,13,16,37,18.10
2020,04,13,16,38,18.00
2020,04,13,16,39,18.00
2020,04,13,16,40,18.00
2020,04,13,16,41,18.00
2020,04,13,16,42,18.00
2020,04,13,16,43,18.00
2020,04,13,16,44,18.00
2020,04,13,16,45,18.00
2020,04,13,16,46,17.90
2020,04,13,16,47,17.80
2020,04,13,16,48,17.70
2020,04,13,16,49,17.60
2020,04,13,16,50,17.60
2020,04,13,16,51,17.60
2020,04,13,16,52,17.50
2020,04,13,16,53,17.40
2020,04,13,16,54,17.40
2020,04,13,16,55,17.30
2020,04,13,16,56,17.30
2020,04,13,16,57,17.30
2020,04,13,16,58,17.20
2020,04,13,16,59,17.20
2020,04,13,17,00,17.20
2020,04,13,17,01,17.10
2020,04,13,17,02,17.10
2020,04,13,17,03,17.10
2020,04,13,17,04,17.10
2020,04,13,17,05,17.20
2020,04,13,17,06,17.20
2020,04,13,17,07,17.10
2020,04,13,17,08,17.10
2020,04,13,17,09,17.00
2020,04,13,17,10,17.00
2020,04,13,17,11,17.00
2020,04,13,17,12,17.00
2020,04,13,17,13,17.00
2020,04,13,17,14,17.00
2020,04,13,17,15,17.00
2020,04,13,17,16,17.00
2020,04,13,17,17,16.90
2020,04,13,17,18,17.00
2020,04,13,17,19,17.00
2020,04,13,17,20,17.00
2020,04,13,17,21,17.00
2020,04,13,17,22,17.00
2020,04,13,17,23,17.00
2020,04,13,17,24,16.90
2020,04,13,17,25,16.90
2020,04,13,17,26,16.90
2020,04,13,17,27,17.00
2020,04,13,17,28,17.00
2020,04,13,17,29,16.90
2020,04,13,17,30,16.90
2020,04,13,17,31,16.90
2020,04,13,17,32,16.80
2020,04,13,17,33,16.80
2020,04,13,17,34,16.70
2020,04,13,17,35,16.70